GW3101 Weather Reports


time (UTC)temp
C
wind
direction
speed
KPH
gust
KPH
rain 1hr
cm
rain 24hr
cm
rain mn
cm
humidity
%
barometer
mb
20260502163937 10 170 8.0 9.7 0.00 0.13 0.13 87 1010.4
20260502163433 10 236 0.0 0.0 0.00 0.13 0.13 88 1010.2
20260502162931 10 166 3.2 3.2 0.00 0.13 0.13 87 1010.4
20260502162428 10 160 3.2 3.2 0.00 0.13 0.13 88 1010.5
20260502161926 10 186 3.2 4.8 0.00 0.13 0.13 87 1010.4
20260502161421 10 166 1.6 1.6 0.00 0.13 0.13 88 1010.5
20260502160919 10 197 0.0 0.0 0.00 0.13 0.13 89 1010.3
20260502160417 10 194 3.2 4.8 0.00 0.13 0.13 89 1010.5
20260502151855 10 161 3.2 3.2 0.00 0.13 0.13 90 1010.9
20260502151351 10 238 1.6 1.6 0.00 0.13 0.13 91 1011.1
20260502150850 10 177 0.0 1.6 0.00 0.13 0.13 91 1011.0
20260502150345 10 201 3.2 4.8 0.00 0.13 0.13 91 1010.9
20260502130734 8 70 0.0 0.0 0.00 0.13 0.13 98 1011.1
20260502130231 8 101 3.2 3.2 0.00 0.13 0.13 98 1011.0
20260502123717 8 6 3.2 3.2 0.13 0.13 0.13 99 1011.1
20260502123214 7 106 0.0 0.0 0.30 0.13 0.13 99 1011.5
20260502122710 7 138 0.0 0.0 0.30 0.10 0.10 99 1011.7
20260502122207 7 138 0.0 0.0 0.13 0.08 0.08 98 1012.0
20260502121706 7 137 0.0 0.0 0.00 0.05 0.05 98 1012.0
20260502121203 7 129 0.0 1.6 0.00 0.05 0.05 98 1011.8
20260502120659 7 94 0.0 0.0 0.18 0.05 0.05 98 1011.6
20260502120156 7 94 0.0 1.6 0.18 0.05 0.05 98 1011.8
20260502115654 7 100 0.0 0.0 0.00 0.03 0.03 98 1011.8
20260502115150 7 122 0.0 0.0 0.00 0.03 0.03 98 1011.6
20260502114646 7 123 0.0 0.0 0.00 0.03 0.03 98 1011.9
20260502114143 7 122 0.0 0.0 0.00 0.03 0.03 98 1011.7
20260502113641 7 122 0.0 0.0 0.00 0.03 0.03 98 1011.9
20260502113139 7 126 0.0 0.0 0.00 0.03 0.03 98 1011.4
20260502112636 7 125 0.0 0.0 0.00 0.03 0.03 98 1011.9
20260502112134 7 126 0.0 0.0 0.00 0.03 0.03 98 1011.6
20260502111631 7 127 0.0 0.0 0.00 0.03 0.03 98 1011.6
20260502111128 7 117 0.0 0.0 0.00 0.03 0.03 98 1011.2
20260502110626 7 116 0.0 0.0 0.00 0.03 0.03 98 1011.2
20260502110123 7 115 0.0 0.0 0.00 0.03 0.03 98 1011.0
20260502105621 7 115 0.0 0.0 0.00 0.03 0.03 98 1010.6
20260502105117 7 115 0.0 0.0 0.00 0.03 0.03 98 1010.8
20260502104615 7 114 0.0 0.0 0.00 0.03 0.03 98 1010.7
20260502104112 6 118 0.0 0.0 0.13 0.03 0.03 98 1010.7
20260502103609 6 144 0.0 0.0 0.13 0.03 0.03 98 1010.9
20260502103108 6 187 0.0 0.0 0.00 0.00 0.00 97 1011.2
20260502102604 6 187 0.0 0.0 0.00 0.00 0.00 97 1011.0
20260502102101 6 187 0.0 0.0 0.00 0.00 0.00 97 1011.1
20260502101559 6 187 0.0 0.0 0.00 0.00 0.00 97 1011.0
20260502101057 6 250 0.0 0.0 0.00 0.00 0.00 97 1010.9
20260502100555 6 328 0.0 0.0 0.00 0.00 0.00 97 1010.8
20260502091530 6 89 0.0 0.0 0.00 0.00 0.00 95 1010.3
20260502091027 6 89 0.0 0.0 0.00 0.00 0.00 95 1010.4
20260502090524 7 89 0.0 0.0 0.00 0.00 0.00 95 1010.4
20260502071419 7 120 0.0 0.0 0.00 0.00 0.00 91 1010.5
20260502070916 7 121 0.0 0.0 0.00 0.00 0.00 91 1010.7
20260502070414 7 120 0.0 0.0 0.00 0.00 0.00 91 1010.4
20260502065912 7 121 0.0 0.0 0.00 0.00 0.00 91 1010.5
20260502065411 7 120 0.0 0.0 0.00 0.00 0.00 91 1010.6
20260502064908 7 120 0.0 0.0 0.00 0.00 0.00 91 1010.7
20260502064406 7 122 0.0 0.0 0.00 0.00 0.00 91 1010.5
20260502063903 7 120 0.0 0.0 0.00 0.00 0.00 91 1010.6
20260502063400 7 118 0.0 0.0 0.00 0.00 0.00 91 1010.5
20260502062858 7 118 0.0 0.0 0.00 0.00 0.00 91 1011.0
20260502062355 7 118 0.0 0.0 0.00 0.00 0.00 90 1010.6
20260502061854 7 119 0.0 0.0 0.00 0.00 0.00 90 1010.9
20260502061351 7 118 0.0 0.0 0.00 0.00 0.00 90 1010.8
20260502060847 7 119 0.0 0.0 0.00 0.00 0.00 90 1011.0
20260502060343 7 119 0.0 0.0 0.00 0.00 0.00 90 1010.9
20260502055840 7 119 0.0 0.0 0.00 0.00 0.00 90 1010.8
20260502055338 7 118 0.0 0.0 0.00 0.00 0.00 89 1010.9
20260502054837 7 119 0.0 0.0 0.00 0.00 0.00 89 1010.8
20260502054334 7 119 0.0 0.0 0.00 0.00 0.00 89 1010.9
20260502053832 7 119 0.0 0.0 0.00 0.00 0.00 88 1010.8
20260502053329 7 119 0.0 0.0 0.00 0.00 0.00 88 1011.0
20260502052826 7 119 0.0 0.0 0.00 0.00 0.00 88 1011.0
20260502052324 7 119 0.0 0.0 0.00 0.00 0.00 88 1011.0
20260502051822 7 144 0.0 0.0 0.00 0.00 0.00 88 1011.1
20260502051321 7 144 0.0 0.0 0.00 0.00 0.00 88 1011.1
20260502050816 7 144 0.0 0.0 0.00 0.00 0.00 88 1010.9
20260502050313 7 144 0.0 0.0 0.00 0.00 0.00 88 1011.2
20260502045810 7 144 0.0 0.0 0.00 0.00 0.00 88 1011.2
20260502045306 7 144 0.0 0.0 0.00 0.00 0.00 87 1011.0
20260502044804 7 144 0.0 0.0 0.00 0.00 0.00 87 1011.2
20260502044259 7 144 0.0 0.0 0.00 0.00 0.00 86 1011.2
20260502043757 7 144 0.0 0.0 0.00 0.00 0.00 86 1010.9
20260502043254 7 144 0.0 0.0 0.00 0.00 0.00 86 1010.9
20260502042754 7 144 0.0 0.0 0.00 0.00 0.00 86 1011.0
20260502042251 7 144 0.0 0.0 0.00 0.00 0.00 86 1010.9
20260502041749 7 144 0.0 0.0 0.00 0.00 0.00 85 1011.0
20260502041246 7 144 0.0 0.0 0.00 0.00 0.00 86 1011.0
20260502040743 7 144 0.0 0.0 0.00 0.00 0.00 84 1011.0
20260502040240 7 144 0.0 0.0 0.00 0.00 0.00 84 1011.1
20260502035736 7 144 0.0 0.0 0.00 0.00 0.00 84 1011.3
20260502035233 7 144 0.0 0.0 0.00 0.00 0.00 83 1011.2
20260502034730 7 144 0.0 0.0 0.00 0.00 0.00 83 1011.2
20260502034228 7 144 0.0 0.0 0.00 0.00 0.00 83 1011.1
20260502033726 7 144 0.0 0.0 0.00 0.00 0.00 83 1011.2
20260502033224 7 144 0.0 0.0 0.00 0.00 0.00 82 1011.2
20260502032720 8 144 0.0 0.0 0.00 0.00 0.00 81 1011.0
20260502032216 8 144 0.0 0.0 0.00 0.00 0.00 78 1010.9
20260502031714 8 144 0.0 0.0 0.00 0.00 0.00 77 1011.0
20260502031212 9 144 0.0 0.0 0.00 0.00 0.00 76 1010.9
20260502030711 9 144 0.0 0.0 0.00 0.00 0.00 75 1011.3
20260502030208 10 163 0.0 0.0 0.00 0.00 0.00 75 1011.2
20260502025705 9 170 1.6 1.6 0.00 0.00 0.00 74 1011.3
20260502025203 10 169 0.0 0.0 0.00 0.00 0.00 74 1011.1
20260502024700 10 169 0.0 0.0 0.00 0.00 0.00 75 1011.1
20260502024158 10 170 0.0 0.0 0.00 0.00 0.00 72 1011.2
20260502023656 10 139 0.0 0.0 0.00 0.00 0.00 74 1011.3
20260502023153 9 207 0.0 0.0 0.00 0.00 0.00 75 1011.2
20260502022650 10 99 0.0 0.0 0.00 0.00 0.00 78 1011.2
20260502022147 10 98 0.0 0.0 0.00 0.00 0.00 73 1011.1
20260502021644 10 99 0.0 0.0 0.00 0.00 0.00 70 1011.0
20260502021141 9 92 0.0 0.0 0.00 0.00 0.00 71 1011.3
20260502020638 9 90 0.0 0.0 0.00 0.00 0.00 75 1011.1
20260502020135 9 91 0.0 0.0 0.00 0.00 0.00 78 1011.2
20260502015633 9 90 0.0 0.0 0.00 0.00 0.00 74 1011.0
20260502015129 8 114 0.0 0.0 0.00 0.00 0.00 71 1011.1
20260502014627 8 31 0.0 0.0 0.00 0.00 0.00 78 1011.2
20260502014124 8 30 0.0 0.0 0.00 0.00 0.00 77 1011.1
20260502013620 8 30 0.0 0.0 0.00 0.00 0.00 78 1011.0
20260502013115 8 30 0.0 0.0 0.00 0.00 0.00 77 1010.8
20260502012613 8 30 0.0 0.0 0.00 0.00 0.00 78 1010.9
20260502012111 8 1 0.0 1.6 0.00 0.00 0.00 79 1010.8
20260502011607 8 208 1.6 3.2 0.00 0.00 0.00 78 1011.0
20260502011103 8 121 0.0 0.0 0.00 0.00 0.00 77 1010.8
20260502010601 8 120 0.0 0.0 0.00 0.00 0.00 78 1010.7
20260502010057 8 121 0.0 1.6 0.00 0.00 0.00 78 1010.6
20260502005555 7 62 0.0 0.0 0.00 0.00 0.00 78 1010.4
20260502005053 7 63 0.0 0.0 0.00 0.00 0.00 77 1010.3
20260502004548 7 63 0.0 0.0 0.00 0.00 0.00 77 1010.3
20260502004045 7 63 0.0 0.0 0.00 0.00 0.00 76 1010.5
20260502003543 7 63 0.0 0.0 0.00 0.00 0.00 77 1010.3
20260502003040 7 63 0.0 0.0 0.00 0.00 0.00 76 1010.2
20260502002536 7 63 0.0 0.0 0.00 0.00 0.00 75 1010.1
20260502002033 7 63 0.0 0.0 0.00 0.00 0.00 75 1010.2
20260502001531 7 63 0.0 0.0 0.00 0.00 0.00 72 1009.8
20260502001028 8 63 0.0 0.0 0.00 0.00 0.00 70 1009.8
20260502000526 8 63 0.0 0.0 0.00 0.00 0.00 68 1009.8
20260502000023 9 63 0.0 0.0 0.00 0.00 0.00 67 1009.5
20260501235519 9 63 0.0 0.0 0.00 0.00 0.00 62 1009.3
20260501235014 10 63 0.0 0.0 0.00 0.00 0.00 63 1009.5
20260501234510 10 63 0.0 0.0 0.00 0.00 0.00 63 1009.5
20260501234009 11 63 0.0 0.0 0.00 0.00 0.00 58 1009.4
20260501233507 11 64 0.0 0.0 0.00 0.00 0.00 57 1009.3
20260501233003 11 63 0.0 0.0 0.00 0.00 0.00 57 1009.5
20260501232459 12 63 0.0 0.0 0.00 0.00 0.00 51 1009.6
20260501231956 12 63 0.0 0.0 0.00 0.00 0.00 52 1009.2
20260501231455 12 63 0.0 0.0 0.00 0.00 0.00 50 1009.3
20260501230953 13 48 0.0 0.0 0.00 0.00 0.00 46 1009.0
20260501230451 13 357 0.0 0.0 0.00 0.00 0.00 47 1009.0
20260501225948 13 61 0.0 0.0 0.00 0.00 0.00 42 1009.0
20260501225446 13 262 0.0 0.0 0.00 0.00 0.00 42 1009.0
20260501224941 13 29 0.0 0.0 0.00 0.00 0.00 44 1008.9
20260501224439 13 93 0.0 0.0 0.00 0.00 0.00 44 1009.1
20260501223936 14 182 0.0 0.0 0.00 0.00 0.00 44 1008.9
20260501223432 14 45 0.0 1.6 0.00 0.00 0.00 45 1008.6
20260501222928 14 96 0.0 1.6 0.00 0.00 0.00 43 1008.9
20260501222426 14 238 0.0 1.6 0.00 0.00 0.00 45 1009.0
20260501221921 14 213 0.0 0.0 0.00 0.00 0.00 43 1008.9
20260501221419 14 216 6.4 8.0 0.00 0.00 0.00 42 1009.0
20260501220917 14 112 0.0 1.6 0.00 0.00 0.00 42 1009.2
20260501220414 15 87 0.0 0.0 0.00 0.00 0.00 40 1009.2
20260501215910 15 358 1.6 1.6 0.00 0.00 0.00 40 1009.0
20260501215407 15 127 0.0 0.0 0.00 0.00 0.00 40 1009.1
20260501214902 15 186 1.6 1.6 0.00 0.00 0.00 41 1009.1
20260501214357 15 82 1.6 3.2 0.00 0.00 0.00 40 1009.1
20260501213853 15 340 1.6 1.6 0.00 0.00 0.00 40 1009.1
20260501213350 15 253 0.0 1.6 0.00 0.00 0.00 37 1008.8
20260501212845 16 283 4.8 4.8 0.00 0.00 0.00 40 1008.9
20260501212343 16 155 1.6 1.6 0.00 0.00 0.00 40 1008.8
20260501211840 16 251 1.6 3.2 0.00 0.00 0.00 39 1008.8
20260501211337 16 44 3.2 3.2 0.00 0.00 0.00 38 1009.1
20260501210834 16 319 4.8 8.0 0.00 0.00 0.00 40 1008.9
20260501210331 15 23 1.6 4.8 0.00 0.00 0.00 41 1008.9
20260501205827 15 354 0.0 1.6 0.00 0.00 0.00 39 1008.7
20260501205324 16 303 1.6 1.6 0.00 0.00 0.00 39 1009.0
20260501204816 16 9 0.0 0.0 0.00 0.00 0.00 41 1008.8
20260501204313 16 70 0.0 1.6 0.00 0.00 0.00 37 1008.6
20260501203809 16 308 3.2 3.2 0.00 0.00 0.00 39 1008.7
20260501203306 16 300 3.2 4.8 0.00 0.00 0.00 40 1008.8
20260501202803 16 91 3.2 3.2 0.00 0.00 0.00 36 1008.6
20260501202300 16 35 3.2 4.8 0.00 0.00 0.00 39 1008.4
20260501201757 16 210 3.2 4.8 0.00 0.00 0.00 38 1008.6
20260501201253 16 246 4.8 4.8 0.00 0.00 0.00 37 1008.8
20260501200750 16 323 4.8 4.8 0.00 0.00 0.00 41 1008.4
20260501200247 16 172 4.8 8.0 0.00 0.00 0.00 37 1008.5
20260501195745 16 310 4.8 8.0 0.00 0.00 0.00 38 1008.4
20260501195240 16 64 4.8 4.8 0.00 0.00 0.00 36 1008.5
20260501194737 16 253 1.6 3.2 0.00 0.00 0.00 39 1008.6
20260501194233 16 195 3.2 4.8 0.00 0.00 0.00 35 1008.6
20260501193729 16 358 11.3 17.7 0.00 0.00 0.00 36 1008.7
20260501193228 16 330 1.6 3.2 0.00 0.00 0.00 40 1008.7
20260501192725 16 1 3.2 3.2 0.00 0.00 0.00 39 1008.7
20260501192222 16 36 6.4 9.7 0.00 0.00 0.00 42 1009.1
20260501191719 16 327 3.2 3.2 0.00 0.00 0.00 40 1008.9
20260501191216 16 29 0.0 1.6 0.00 0.00 0.00 41 1008.6
20260501190712 16 351 4.8 4.8 0.00 0.00 0.00 38 1008.7
20260501190208 16 272 4.8 4.8 0.00 0.00 0.00 40 1008.9
20260501185704 16 346 8.0 11.3 0.00 0.00 0.00 39 1008.7
20260501185200 16 329 4.8 4.8 0.00 0.00 0.00 40 1008.8
20260501184656 15 12 4.8 8.0 0.00 0.00 0.00 39 1008.9
20260501184156 16 21 6.4 8.0 0.00 0.00 0.00 40 1009.2
20260501183653 16 37 3.2 3.2 0.00 0.00 0.00 41 1009.0
20260501183150 16 335 8.0 9.7 0.00 0.00 0.00 45 1009.4
20260501182647 16 334 1.6 3.2 0.00 0.00 0.00 41 1009.2
20260501182143 16 110 1.6 3.2 0.00 0.00 0.00 42 1009.2
20260501181640 16 231 4.8 4.8 0.00 0.00 0.00 40 1009.0
20260501181137 16 220 3.2 8.0 0.00 0.00 0.00 46 1008.9
20260501180636 15 239 1.6 4.8 0.00 0.00 0.00 49 1009.1
20260501180131 15 328 3.2 3.2 0.00 0.00 0.00 46 1009.4
20260501175628 16 66 4.8 4.8 0.00 0.00 0.00 43 1009.2
20260501175126 16 238 3.2 4.8 0.00 0.00 0.00 44 1009.4
20260501174622 15 348 1.6 4.8 0.00 0.00 0.00 44 1009.5
20260501174120 15 341 8.0 11.3 0.00 0.00 0.00 45 1009.3
20260501173617 15 346 4.8 4.8 0.00 0.00 0.00 46 1009.3
20260501173114 15 322 8.0 8.0 0.00 0.00 0.00 46 1009.5
20260501172609 15 33 4.8 4.8 0.00 0.00 0.00 49 1009.6
20260501172104 16 202 8.0 11.3 0.00 0.00 0.00 49 1009.7
20260501171601 15 194 4.8 4.8 0.00 0.00 0.00 48 1009.4
20260501171058 15 63 1.6 3.2 0.00 0.00 0.00 49 1009.4
20260501170555 13 5 3.2 4.8 0.00 0.00 0.00 48 1009.4
20260501170052 15 211 9.7 14.5 0.00 0.00 0.00 50 1009.6
20260501165549 14 350 11.3 12.9 0.00 0.00 0.00 49 1009.7
20260501165047 14 221 1.6 1.6 0.00 0.00 0.00 51 1009.6
20260501164544 13 8 4.8 4.8 0.00 0.00 0.00 51 1009.5